KA3RQR Weather Reports


time (UTC)temp
F
wind
direction
speed
knots
gust
knots
rain 1hr
in
rain 24hr
in
rain mn
in
humidity
%
barometer
mb
20260506015634 73 132 4.3 7.0 0.00 0.00 0.00 44 1011.1
20260506015131 74 162 1.7 2.6 0.00 0.00 0.00 44 1011.0
20260506014629 74 120 5.2 7.8 0.00 0.00 0.00 43 1010.5
20260506014125 74 142 2.6 4.3 0.00 0.00 0.00 43 1011.1
20260506013623 74 165 2.6 2.6 0.00 0.00 0.00 43 1010.9
20260506013119 74 132 1.7 1.7 0.00 0.00 0.00 42 1010.9
20260506012616 74 169 0.9 1.7 0.00 0.00 0.00 41 1010.5
20260506012112 75 195 4.3 6.1 0.00 0.00 0.00 41 1010.5
20260506011610 75 136 2.6 2.6 0.00 0.00 0.00 42 1010.5
20260506011106 75 169 0.9 1.7 0.00 0.00 0.00 40 1010.7
20260506010600 75 174 1.7 2.6 0.00 0.00 0.00 40 1010.4
20260506010056 75 130 0.9 1.7 0.00 0.00 0.00 39 1010.2
20260506005554 75 109 4.3 6.1 0.00 0.00 0.00 39 1010.0
20260506005049 75 139 1.7 1.7 0.00 0.00 0.00 39 1010.1
20260506004547 75 163 0.9 0.9 0.00 0.00 0.00 39 1010.2
20260506004043 76 178 0.0 0.9 0.00 0.00 0.00 38 1010.2
20260506003540 76 171 6.1 7.8 0.00 0.00 0.00 37 1010.0
20260506003036 76 129 2.6 2.6 0.00 0.00 0.00 37 1010.1
20260506002532 76 153 1.7 2.6 0.00 0.00 0.00 37 1010.1
20260506002028 76 113 1.7 1.7 0.00 0.00 0.00 36 1009.8
20260506001525 77 155 1.7 1.7 0.00 0.00 0.00 35 1009.9
20260506001022 77 132 2.6 4.3 0.00 0.00 0.00 35 1009.7
20260506000520 77 155 0.9 0.9 0.00 0.00 0.00 34 1009.7
20260506000017 77 156 3.5 5.2 0.00 0.00 0.00 34 1009.9
20260505235515 77 156 2.6 4.3 0.00 0.00 0.00 33 1009.6
20260505235011 77 138 0.9 0.9 0.00 0.00 0.00 35 1009.7
20260505234508 78 171 0.9 1.7 0.00 0.00 0.00 33 1009.6
20260505234005 78 136 0.9 0.9 0.00 0.00 0.00 33 1009.7
20260505233502 78 127 1.7 1.7 0.00 0.00 0.00 32 1009.7
20260505233000 78 217 1.7 1.7 0.00 0.00 0.00 35 1009.6
20260505232458 78 162 1.7 1.7 0.00 0.00 0.00 33 1009.4
20260505231954 79 178 0.9 0.9 0.00 0.00 0.00 34 1009.6
20260505231452 79 123 0.9 1.7 0.00 0.00 0.00 34 1009.6
20260505230950 79 167 4.3 6.1 0.00 0.00 0.00 33 1009.6
20260505230447 78 147 0.0 0.0 0.00 0.00 0.00 35 1009.5
20260505225943 79 163 1.7 1.7 0.00 0.00 0.00 33 1009.7
20260505225441 79 130 1.7 2.6 0.00 0.00 0.00 33 1009.9
20260505224937 80 147 0.9 0.9 0.00 0.00 0.00 32 1009.6
20260505224434 80 152 0.9 1.7 0.00 0.00 0.00 32 1009.6
20260505223931 80 111 4.3 7.0 0.00 0.00 0.00 31 1009.6
20260505223427 80 138 0.9 1.7 0.00 0.00 0.00 31 1009.5
20260505222924 80 216 0.9 0.9 0.00 0.00 0.00 32 1009.7
20260505222420 80 147 3.5 5.2 0.00 0.00 0.00 31 1009.6
20260505221916 80 166 1.7 2.6 0.00 0.00 0.00 30 1009.5
20260505221414 80 102 2.6 4.3 0.00 0.00 0.00 31 1009.7
20260505220911 80 134 4.3 6.1 0.00 0.00 0.00 31 1009.6
20260505220408 80 147 2.6 2.6 0.00 0.00 0.00 31 1009.5
20260505215905 81 107 1.7 2.6 0.00 0.00 0.00 31 1009.5
20260505215403 82 164 3.5 5.2 0.00 0.00 0.00 30 1009.6
20260505214901 81 311 4.3 5.2 0.00 0.00 0.00 30 1009.5
20260505214358 82 69 0.9 1.7 0.00 0.00 0.00 31 1009.4
20260505213855 82 186 1.7 1.7 0.00 0.00 0.00 30 1009.5
20260505213353 81 140 2.6 2.6 0.00 0.00 0.00 31 1009.5
20260505212849 81 89 3.5 5.2 0.00 0.00 0.00 32 1009.4
20260505212346 82 138 2.6 4.3 0.00 0.00 0.00 32 1009.4
20260505211842 81 240 3.5 4.3 0.00 0.00 0.00 32 1009.3
20260505211340 81 210 1.7 1.7 0.00 0.00 0.00 32 1009.3
20260505210836 82 145 4.3 6.1 0.00 0.00 0.00 30 1009.5
20260505210333 82 153 6.1 7.8 0.00 0.00 0.00 30 1009.7
20260505205830 82 164 2.6 2.6 0.00 0.00 0.00 30 1009.7
20260505205329 81 143 2.6 4.3 0.00 0.00 0.00 31 1009.4
20260505204825 81 98 0.9 1.7 0.00 0.00 0.00 34 1009.4
20260505204323 82 328 3.5 5.2 0.00 0.00 0.00 32 1009.6
20260505203820 82 140 4.3 5.2 0.00 0.00 0.00 32 1009.3
20260505203316 82 138 4.3 6.1 0.00 0.00 0.00 32 1009.2
20260505202813 82 204 4.3 6.1 0.00 0.00 0.00 33 1009.4
20260505202309 83 133 0.9 1.7 0.00 0.00 0.00 33 1009.3
20260505201806 82 174 6.1 7.0 0.00 0.00 0.00 32 1009.4
20260505201303 83 141 6.1 7.0 0.00 0.00 0.00 32 1009.4
20260505200802 83 108 1.7 4.3 0.00 0.00 0.00 33 1009.2
20260505200258 83 134 2.6 4.3 0.00 0.00 0.00 31 1009.8
20260505195753 83 198 5.2 7.8 0.00 0.00 0.00 31 1009.5
20260505195251 83 177 2.6 5.2 0.00 0.00 0.00 31 1009.4
20260505194748 83 255 3.5 5.2 0.00 0.00 0.00 33 1009.6
20260505194245 83 125 3.5 5.2 0.00 0.00 0.00 30 1009.7
20260505193740 83 151 1.7 1.7 0.00 0.00 0.00 30 1009.7
20260505193238 83 302 5.2 7.8 0.00 0.00 0.00 32 1009.7
20260505192736 82 121 6.1 7.8 0.00 0.00 0.00 32 1009.7
20260505192234 83 187 0.9 1.7 0.00 0.00 0.00 32 1010.0
20260505191732 83 111 3.5 6.1 0.00 0.00 0.00 30 1009.8
20260505191230 82 220 1.7 4.3 0.00 0.00 0.00 35 1010.0
20260505190726 82 284 6.1 7.8 0.00 0.00 0.00 31 1010.0
20260505190226 82 148 7.8 8.7 0.00 0.00 0.00 32 1010.2
20260505185722 82 137 2.6 2.6 0.00 0.00 0.00 33 1010.4
20260505185219 82 225 4.3 5.2 0.00 0.00 0.00 32 1010.3
20260505184715 82 123 2.6 2.6 0.00 0.00 0.00 32 1010.5
20260505184213 82 132 1.7 1.7 0.00 0.00 0.00 33 1010.5
20260505183709 82 183 3.5 4.3 0.00 0.00 0.00 32 1010.7
20260505183207 82 202 1.7 2.6 0.00 0.00 0.00 35 1010.5
20260505182702 82 137 7.0 9.6 0.00 0.00 0.00 32 1010.5
20260505182200 81 138 0.9 0.9 0.00 0.00 0.00 35 1010.8
20260505181656 81 170 0.9 0.9 0.00 0.00 0.00 35 1010.9
20260505181154 81 128 2.6 4.3 0.00 0.00 0.00 34 1011.1
20260505180650 81 104 4.3 7.0 0.00 0.00 0.00 34 1010.9
20260505180148 81 168 1.7 2.6 0.00 0.00 0.00 37 1010.8
20260505175643 81 174 1.7 2.6 0.00 0.00 0.00 35 1011.0
20260505175140 81 215 2.6 4.3 0.00 0.00 0.00 35 1011.3
20260505174637 80 240 1.7 1.7 0.00 0.00 0.00 35 1011.3
20260505174132 80 30 0.9 0.9 0.00 0.00 0.00 37 1011.3
20260505173629 80 183 0.0 0.9 0.00 0.00 0.00 36 1011.4
20260505173126 80 156 4.3 5.2 0.00 0.00 0.00 37 1011.2
20260505172624 80 181 2.6 5.2 0.00 0.00 0.00 37 1011.2
20260505172120 80 156 1.7 1.7 0.00 0.00 0.00 38 1011.3
20260505171615 80 226 2.6 4.3 0.00 0.00 0.00 39 1011.6
20260505171112 80 159 1.7 5.2 0.00 0.00 0.00 36 1011.6
20260505170609 80 0 2.6 4.3 0.00 0.00 0.00 37 1011.5
20260505170106 80 200 0.9 0.9 0.00 0.00 0.00 44 1011.4
20260505165601 79 191 0.9 1.7 0.00 0.00 0.00 39 1011.5
20260505165057 79 238 2.6 4.3 0.00 0.00 0.00 43 1011.8
20260505164553 79 134 6.1 7.0 0.00 0.00 0.00 39 1011.9
20260505164050 78 157 6.1 11.3 0.00 0.00 0.00 40 1011.9
20260505163549 79 183 1.7 2.6 0.00 0.00 0.00 40 1011.6
20260505163045 78 113 1.7 1.7 0.00 0.00 0.00 39 1012.0
20260505162538 78 324 3.5 5.2 0.00 0.00 0.00 41 1012.0
20260505162036 77 114 6.1 7.0 0.00 0.00 0.00 39 1012.4
20260505161532 78 208 3.5 5.2 0.00 0.00 0.00 42 1012.4
20260505161029 77 141 2.6 2.6 0.00 0.00 0.00 43 1012.5
20260505160527 77 278 3.5 5.2 0.00 0.00 0.00 45 1012.6
20260505153004 75 248 2.6 2.6 0.00 0.00 0.00 47 1012.6
20260505152501 76 210 2.6 2.6 0.00 0.00 0.00 48 1012.7
20260505151956 75 173 2.6 4.3 0.00 0.00 0.00 48 1012.5
20260505151451 75 170 1.7 1.7 0.00 0.00 0.00 48 1012.4
20260505150949 74 165 0.9 0.9 0.00 0.00 0.00 49 1012.6
20260505150446 74 320 1.7 4.3 0.00 0.00 0.00 49 1012.7
20260505140416 70 210 4.3 5.2 0.00 0.00 0.00 54 1012.8
20260505124829 65 168 0.0 0.9 0.00 0.00 0.00 59 1012.9
20260505124326 64 289 3.5 4.3 0.00 0.00 0.00 59 1012.8
20260505123822 64 177 0.9 0.9 0.00 0.00 0.00 60 1012.9
20260505123319 64 220 1.7 1.7 0.00 0.00 0.00 59 1013.1
20260505122815 63 226 1.7 2.6 0.00 0.00 0.00 60 1013.0
20260505122313 63 229 2.6 2.6 0.00 0.00 0.00 60 1012.8
20260505121809 63 178 0.9 1.7 0.00 0.00 0.00 60 1013.0
20260505121306 62 228 1.7 1.7 0.00 0.00 0.00 61 1012.9
20260505120802 62 175 0.0 0.0 0.00 0.00 0.00 61 1013.1
20260505120259 62 153 0.9 1.7 0.00 0.00 0.00 62 1012.9
20260505115757 62 107 0.9 0.9 0.00 0.00 0.00 62 1012.8
20260505115255 62 174 2.6 2.6 0.00 0.00 0.00 62 1012.8
20260505114752 61 178 0.9 0.9 0.00 0.00 0.00 62 1012.4
20260505114248 61 99 0.9 1.7 0.00 0.00 0.00 63 1012.5
20260505113745 61 180 0.0 0.9 0.00 0.00 0.00 64 1012.4
20260505113241 60 167 0.0 0.0 0.00 0.00 0.00 65 1012.5
20260505112737 60 190 0.9 1.7 0.00 0.00 0.00 64 1012.5
20260505112235 60 252 1.7 2.6 0.00 0.00 0.00 64 1012.3
20260505111735 60 190 0.9 0.9 0.00 0.00 0.00 64 1012.3
20260505111231 60 213 0.9 1.7 0.00 0.00 0.00 64 1012.3
20260505110727 60 172 0.0 0.9 0.00 0.00 0.00 63 1012.2
20260505110225 60 152 3.5 6.1 0.00 0.00 0.00 63 1012.3
20260505102200 60 180 0.0 0.9 0.00 0.00 0.00 64 1011.9
20260505101659 60 146 0.9 0.9 0.00 0.00 0.00 64 1011.9
20260505101155 60 172 0.9 1.7 0.00 0.00 0.00 64 1011.9
20260505100651 60 187 0.9 0.9 0.00 0.00 0.00 64 1011.8
20260505100149 60 260 2.6 2.6 0.00 0.00 0.00 64 1011.8
20260505095644 60 175 0.0 0.0 0.00 0.00 0.00 64 1011.6
20260505095142 60 139 2.6 2.6 0.00 0.00 0.00 64 1011.6
20260505094637 60 158 0.9 0.9 0.00 0.00 0.00 64 1011.9
20260505094134 60 168 0.0 0.0 0.00 0.00 0.00 64 1011.8
20260505093630 60 171 0.0 0.0 0.00 0.00 0.00 64 1011.8
20260505093128 60 181 0.9 0.9 0.00 0.00 0.00 63 1011.6
20260505092625 60 168 0.0 0.0 0.00 0.00 0.00 64 1011.8
20260505092124 60 165 0.0 0.0 0.00 0.00 0.00 63 1011.7
20260505091620 60 182 0.0 0.9 0.00 0.00 0.00 63 1011.6
20260505091118 61 212 1.7 1.7 0.00 0.00 0.00 63 1011.5
20260505090615 61 241 2.6 2.6 0.00 0.00 0.00 62 1011.5
20260505090114 60 195 0.0 0.9 0.00 0.00 0.00 63 1011.2
20260505085610 60 174 0.0 0.0 0.00 0.00 0.00 64 1011.4
20260505085109 60 176 0.0 0.9 0.00 0.00 0.00 63 1011.4
20260505084606 60 211 3.5 4.3 0.00 0.00 0.00 64 1011.4
20260505084105 60 174 0.0 0.0 0.00 0.00 0.00 65 1011.3
20260505083602 60 179 0.9 0.9 0.00 0.00 0.00 65 1011.4
20260505083058 60 194 0.9 0.9 0.00 0.00 0.00 67 1011.6
20260505082554 59 165 0.0 0.0 0.00 0.00 0.00 68 1011.6
20260505082051 59 157 0.9 0.9 0.00 0.00 0.00 68 1011.4
20260505081547 59 164 0.0 0.0 0.00 0.00 0.00 68 1011.5
20260505081044 60 168 0.0 0.0 0.00 0.00 0.00 68 1011.4
20260505080540 60 149 0.0 0.9 0.00 0.00 0.00 67 1011.4
20260505080038 60 158 0.9 0.9 0.00 0.00 0.00 67 1011.3
20260505075533 60 167 0.0 0.0 0.00 0.00 0.00 67 1011.4
20260505075030 60 143 0.0 0.9 0.00 0.00 0.00 67 1011.2
20260505074527 59 155 1.7 2.6 0.00 0.00 0.00 68 1011.3
20260505074025 59 176 0.0 0.0 0.00 0.00 0.00 69 1011.3
20260505073522 59 167 0.0 0.0 0.00 0.00 0.00 69 1011.2
20260505073020 59 162 0.9 1.7 0.00 0.00 0.00 69 1011.2
20260505072515 60 166 0.9 0.9 0.00 0.00 0.00 68 1011.4
20260505072012 59 158 0.9 0.9 0.00 0.00 0.00 70 1011.2
20260505071508 59 160 0.0 0.9 0.00 0.00 0.00 71 1011.1
20260505071006 59 160 0.9 0.9 0.00 0.00 0.00 70 1011.1
20260505070503 60 165 0.0 0.0 0.00 0.00 0.00 69 1011.3
20260505065958 60 166 0.0 0.0 0.00 0.00 0.00 68 1011.2
20260505065455 61 173 0.0 0.0 0.00 0.00 0.00 66 1011.0
20260505064951 61 158 0.9 0.9 0.00 0.00 0.00 66 1011.3
20260505064448 62 156 0.0 0.9 0.00 0.00 0.00 65 1011.2
20260505063947 61 165 0.0 0.0 0.00 0.00 0.00 66 1011.3
20260505063443 61 168 0.0 0.0 0.00 0.00 0.00 66 1011.2
20260505062940 61 173 0.0 0.0 0.00 0.00 0.00 66 1011.1
20260505062437 61 178 0.9 0.9 0.00 0.00 0.00 66 1010.9
20260505061933 60 152 0.9 0.9 0.00 0.00 0.00 67 1010.9
20260505061432 61 171 0.0 0.0 0.00 0.00 0.00 68 1011.1
20260505060929 61 156 0.0 0.9 0.00 0.00 0.00 66 1011.0
20260505060426 61 172 0.0 0.0 0.00 0.00 0.00 66 1011.1
20260505055922 61 169 0.0 0.0 0.00 0.00 0.00 67 1011.2
20260505055418 60 147 0.9 1.7 0.00 0.00 0.00 69 1011.3
20260505054915 59 163 0.9 0.9 0.00 0.00 0.00 70 1011.1
20260505054412 59 166 0.0 0.0 0.00 0.00 0.00 73 1011.2
20260505053910 59 166 0.0 0.0 0.00 0.00 0.00 72 1011.3
20260505053407 59 169 0.0 0.0 0.00 0.00 0.00 73 1011.2
20260505052904 59 169 0.0 0.0 0.00 0.00 0.00 72 1011.1
20260505052401 60 169 0.0 0.0 0.00 0.00 0.00 71 1011.1
20260505051858 60 169 0.0 0.0 0.00 0.00 0.00 70 1011.0
20260505051355 60 167 0.0 0.0 0.00 0.00 0.00 70 1011.1
20260505050853 60 167 0.0 0.0 0.00 0.00 0.00 70 1011.1
20260505050352 61 167 0.0 0.0 0.00 0.00 0.00 69 1011.0
20260505041319 64 253 0.9 1.7 0.00 0.00 0.00 61 1011.4
20260505040816 64 164 0.0 0.0 0.00 0.00 0.00 61 1011.3
20260505040314 64 188 0.9 0.9 0.00 0.00 0.00 60 1011.3
20260505035810 64 193 1.7 1.7 0.00 0.00 0.00 60 1011.3
20260505035306 64 178 0.0 0.0 0.00 0.00 0.00 60 1011.3
20260505034803 64 181 0.0 0.9 0.00 0.00 0.00 59 1011.3
20260505034300 64 186 0.9 0.9 0.00 0.00 0.00 60 1011.2
20260505033756 64 125 0.0 0.9 0.00 0.00 0.00 59 1011.3
20260505033254 65 159 0.0 0.0 0.00 0.00 0.00 59 1011.5
20260505032752 64 196 0.9 0.9 0.00 0.00 0.00 59 1011.4
20260505032248 64 262 1.7 1.7 0.00 0.00 0.00 59 1011.4
20260505031745 65 172 0.0 0.0 0.00 0.00 0.00 58 1011.2
20260505031241 65 175 0.0 0.9 0.00 0.00 0.00 58 1011.4
20260505030738 65 155 0.9 0.9 0.00 0.00 0.00 57 1011.3
20260505030234 65 160 0.0 0.0 0.00 0.00 0.00 57 1011.1
20260505025730 66 160 0.9 0.9 0.00 0.00 0.00 55 1011.1
20260505025229 65 224 1.7 1.7 0.00 0.00 0.00 55 1011.2
20260505024727 65 181 0.0 0.0 0.00 0.00 0.00 55 1011.0
20260505024224 66 168 0.9 0.9 0.00 0.00 0.00 54 1010.9
20260505023721 66 178 0.0 0.0 0.00 0.00 0.00 54 1011.3
20260505023218 67 185 0.9 0.9 0.00 0.00 0.00 53 1011.1
20260505022715 67 182 0.9 0.9 0.00 0.00 0.00 53 1011.1
20260505022212 67 163 0.0 0.9 0.00 0.00 0.00 53 1011.2
20260505021709 67 188 0.9 0.9 0.00 0.00 0.00 52 1011.0
20260505021206 68 160 0.9 0.9 0.00 0.00 0.00 51 1011.0
20260505020701 68 156 0.9 1.7 0.00 0.00 0.00 51 1011.0
20260505020157 68 235 1.7 2.6 0.00 0.00 0.00 50 1011.1